Location: Jackson Park
(37.2862°N, 79.9123°W)
Time: 10:43:39
(UTC+00:00)

A-11 Canister half - All Passes

Search period start: 15 May 2026 00:00
Search period end: 25 May 2026 00:00
Orbit: 1523 x 1685 km, 47.3° (Epoch: 14 May)

Date Brightness Start Highest point End Pass type
(mag) Time Alt. Az. Time Alt. Az. Time Alt. Az.
15 May - 02:06:25 10° WNW 02:15:53 50° N 02:25:38 10° E visible
15 May - 04:11:55 10° WNW 04:21:58 88° NNE 04:32:11 10° ESE visible
15 May - 06:17:50 10° WNW 06:26:23 33° SW 06:35:01 10° S visible
15 May - 19:31:29 10° S 19:37:53 21° SE 19:44:23 10° E daylight
15 May - 21:32:16 10° SW 21:41:39 74° SE 21:51:22 10° ENE daylight
15 May - 23:37:50 10° W 23:47:11 55° NNW 23:56:54 10° ENE daylight
16 May - 01:44:30 10° WNW 01:53:56 49° N 02:03:38 10° E visible
16 May - 03:50:03 10° WNW 04:00:04 85° NNE 04:10:17 10° ESE visible
16 May - 05:55:51 10° WNW 06:04:34 35° SW 06:13:22 10° S visible
16 May - 19:10:05 10° SSE 19:16:07 19° SE 19:22:14 10° E daylight
16 May - 21:10:29 10° SW 21:19:48 71° SE 21:29:28 10° ENE daylight
16 May - 23:15:55 10° W 23:25:15 56° NNW 23:34:58 10° ENE daylight
17 May - 01:22:35 10° WNW 01:31:59 49° N 01:41:38 10° E visible
17 May - 03:28:11 10° WNW 03:38:10 82° NNE 03:48:22 10° ESE visible
17 May - 05:33:52 10° WNW 05:42:44 37° SW 05:51:43 10° SSE visible
17 May - 18:48:45 10° SSE 18:54:21 18° ESE 19:00:03 10° E daylight
17 May - 20:48:43 10° SW 20:57:58 68° SE 21:07:33 10° ENE daylight
17 May - 22:53:59 10° W 23:03:20 57° NNW 23:13:02 10° ENE daylight
18 May - 01:00:41 10° WNW 01:10:01 48° N 01:19:39 10° E visible
18 May - 03:06:19 10° WNW 03:16:16 79° NNE 03:26:27 10° ESE visible
18 May - 05:11:56 10° WNW 05:20:55 39° SW 05:30:02 10° SSE visible
18 May - 18:27:27 10° SSE 18:32:36 16° ESE 18:37:48 10° E daylight
18 May - 20:26:57 10° SW 20:36:09 64° SE 20:45:39 10° ENE daylight
18 May - 22:32:05 10° W 22:41:25 58° NNW 22:51:07 10° ENE daylight
19 May - 00:38:46 10° WNW 00:48:04 48° N 00:57:40 10° ENE visible
19 May - 02:44:27 10° WNW 02:54:22 77° NNE 03:04:31 10° ESE visible
19 May - 04:49:58 10° WNW 04:59:05 42° SW 05:08:19 10° SSE visible
19 May - 18:06:14 10° SSE 18:10:51 15° ESE 18:15:29 10° E daylight
19 May - 20:05:11 10° SW 20:14:19 61° SE 20:23:44 10° ENE daylight
19 May - 22:10:10 10° W 22:19:30 60° NNW 22:29:11 10° ENE daylight
20 May - 00:16:51 10° WNW 00:26:07 47° N 00:35:40 10° ENE daylight
20 May - 02:22:35 10° WNW 02:32:28 74° NNE 02:42:35 10° ESE visible
20 May - 04:28:02 10° WNW 04:37:15 44° SW 04:46:37 10° SSE visible
20 May - 17:45:08 10° SSE 17:49:05 13° ESE 17:53:04 10° E daylight
20 May - 19:43:27 10° SSW 19:52:29 58° SE 20:01:50 10° ENE daylight
20 May - 21:48:16 10° WSW 21:57:35 61° NNW 22:07:17 10° ENE daylight
20 May - 23:54:57 10° WNW 00:04:09 47° N 00:13:40 10° ENE daylight
21 May - 02:00:43 10° WNW 02:10:32 72° NNE 02:20:39 10° ESE visible
21 May - 04:06:07 10° WNW 04:15:24 46° SW 04:24:52 10° SSE visible
21 May - 17:24:12 10° SE 17:27:20 12° ESE 17:30:30 10° E daylight
21 May - 19:21:42 10° SSW 19:30:41 55° SE 19:39:55 10° ENE daylight
21 May - 21:26:21 10° WSW 21:35:41 63° NNW 21:45:22 10° ENE daylight
21 May - 23:33:02 10° WNW 23:42:12 47° N 23:51:40 10° ENE daylight
22 May - 01:38:51 10° WNW 01:48:38 70° NNE 01:58:41 10° ESE visible
22 May - 03:44:12 10° WNW 03:53:34 49° SW 04:03:07 10° SSE visible
22 May - 05:56:28 10° WSW 05:57:00 10° WSW 05:57:32 10° WSW visible
22 May - 17:03:40 10° SE 17:05:35 11° ESE 17:07:31 10° ESE daylight
22 May - 18:59:58 10° SSW 19:08:52 52° SE 19:18:00 10° ENE daylight
22 May - 21:04:27 10° WSW 21:13:47 65° NNW 21:23:27 10° ENE daylight
22 May - 23:11:07 10° WNW 23:20:15 47° N 23:29:42 10° ENE daylight
23 May - 01:16:59 10° WNW 01:26:43 67° NNE 01:36:44 10° ESE visible
23 May - 03:22:18 10° WNW 03:31:44 51° SW 03:41:22 10° SSE visible
23 May - 05:32:33 10° WSW 05:35:13 11° WSW 05:37:54 10° SW visible
23 May - 18:38:16 10° SSW 18:47:04 49° SE 18:56:05 10° ENE daylight
23 May - 20:42:34 10° WSW 20:51:53 67° NNW 21:01:33 10° ENE daylight
23 May - 22:49:12 10° WNW 22:58:18 47° N 23:07:43 10° ENE daylight
24 May - 00:55:07 10° WNW 01:04:48 65° NNE 01:14:46 10° ESE visible
24 May - 03:00:24 10° WNW 03:09:53 54° SW 03:19:36 10° SSE visible
24 May - 05:09:46 10° W 05:13:26 13° WSW 05:17:09 10° SW visible
24 May - 18:16:34 10° SSW 18:25:16 47° SE 18:34:09 10° ENE daylight
24 May - 20:20:41 10° WSW 20:30:00 69° NNW 20:39:39 10° ENE daylight
24 May - 22:27:16 10° WNW 22:36:21 47° N 22:45:44 10° ENE daylight
